When you browse on this site, cookies collect data to enhance your experience and personalize the content and advertising you see.
Visit our Privacy Policy to learn more. By continuing to use the site, you agree to this use of cookies and data.
  • en France
  • Liste des pays
  • À 7 jours
  • Température de l'eau
  • Carte satellitaire
  • Carte météo
  • Widgets météo
  • user-avatar
    Se connecter

    Météo par heure à Roussé

    Ce jour, 23 Mars, Samedi

    Heure Température Précipitation Vent Pression Humidité
    00:00 +11°C° 0 mm 1 m/s 763 mmHg 60%
    01:00 +10°C° 0 mm 1 m/s 763 mmHg 61%
    02:00 +10°C° 0 mm 1 m/s 763 mmHg 62%
    03:00 +10°C° 0 mm 1 m/s 763 mmHg 64%
    04:00 +8°C° 0 mm 0 m/s 763 mmHg 65%
    05:00 +8°C° 0 mm 0 m/s 762 mmHg 66%
    06:00 +9°C° 0 mm 0 m/s 762 mmHg 65%
    07:00 +10°C° 0 mm 1 m/s 762 mmHg 63%
    08:00 +11°C° 0 mm 1 m/s 762 mmHg 62%
    09:00 +13°C° 0 mm 1 m/s 762 mmHg 59%
    10:00 +14°C° 0 mm 2 m/s 762 mmHg 56%
    11:00 +15°C° 0 mm 2 m/s 762 mmHg 53%
    12:00 +16°C° 0 mm 2 m/s 762 mmHg 51%
    13:00 +16°C° 0 mm 2 m/s 761 mmHg 50%
    14:00 +17°C° 0 mm 2 m/s 761 mmHg 48%
    15:00 +16°C° 0 mm 3 m/s 761 mmHg 50%
    16:00 +15°C° 0 mm 4 m/s 760 mmHg 52%
    17:00 +15°C° 0 mm 4 m/s 760 mmHg 54%
    18:00 +13°C° 0 mm 5 m/s 761 mmHg 51%
    19:00 +10°C° 0 mm 5 m/s 761 mmHg 49%
    20:00 +9°C° 0 mm 5 m/s 762 mmHg 46%
    21:00 +9°C° 0 mm 5 m/s 762 mmHg 41%
    22:00 +10°C° 0 mm 4 m/s 762 mmHg 37%
    23:00 +10°C° 0 mm 3 m/s 763 mmHg 32%

    Demain, 24 Mars, Dimanche

    Heure Température Précipitation Vent Pression Humidité
    00:00 +10°C° 0 mm 3 m/s 763 mmHg 33%
    01:00 +9°C° 0 mm 2 m/s 763 mmHg 34%
    02:00 +9°C° 0 mm 2 m/s 763 mmHg 35%
    03:00 +8°C° 0 mm 2 m/s 763 mmHg 35%
    04:00 +7°C° 0 mm 2 m/s 762 mmHg 36%
    05:00 +8°C° 0 mm 1 m/s 762 mmHg 37%
    06:00 +8°C° 0 mm 1 m/s 762 mmHg 37%
    07:00 +9°C° 0 mm 1 m/s 762 mmHg 37%
    08:00 +9°C° 0 mm 1 m/s 762 mmHg 37%
    09:00 +11°C° 0 mm 1 m/s 762 mmHg 35%
    10:00 +12°C° 0 mm 1 m/s 762 mmHg 34%
    11:00 +14°C° 0 mm 1 m/s 762 mmHg 32%
    12:00 +14°C° 0 mm 1 m/s 761 mmHg 31%
    13:00 +15°C° 0 mm 1 m/s 761 mmHg 31%
    14:00 +16°C° 0 mm 1 m/s 760 mmHg 31%
    15:00 +16°C° 0 mm 1 m/s 760 mmHg 31%
    16:00 +16°C° 0 mm 1 m/s 759 mmHg 31%
    17:00 +16°C° 0 mm 1 m/s 759 mmHg 31%
    18:00 +15°C° 0 mm 1 m/s 759 mmHg 35%
    19:00 +14°C° 0 mm 1 m/s 759 mmHg 39%
    20:00 +12°C° 0 mm 1 m/s 759 mmHg 42%
    21:00 +12°C° 0 mm 1 m/s 759 mmHg 44%
    22:00 +11°C° 0 mm 1 m/s 759 mmHg 45%
    23:00 +9°C° 0 mm 2 m/s 759 mmHg 47%

    Après-demain, 25 Mars, Lundi

    Heure Température Précipitation Vent Pression Humidité
    00:00 +10°C° 0 mm 1 m/s 759 mmHg 47%
    01:00 +10°C° 0 mm 1 m/s 759 mmHg 47%
    02:00 +9°C° 0 mm 1 m/s 758 mmHg 46%
    03:00 +9°C° 0 mm 1 m/s 758 mmHg 47%
    04:00 +9°C° 0 mm 1 m/s 758 mmHg 48%
    05:00 +8°C° 0 mm 1 m/s 757 mmHg 49%
    06:00 +9°C° 0 mm 1 m/s 757 mmHg 49%
    07:00 +10°C° 0 mm 1 m/s 757 mmHg 49%
    08:00 +11°C° 0 mm 1 m/s 757 mmHg 49%
    09:00 +13°C° 0 mm 2 m/s 756 mmHg 44%
    10:00 +15°C° 0 mm 2 m/s 756 mmHg 39%
    11:00 +17°C° 0 mm 2 m/s 755 mmHg 34%
    12:00 +19°C° 0 mm 2 m/s 754 mmHg 32%
    13:00 +20°C° 0 mm 3 m/s 754 mmHg 30%
    14:00 +21°C° 0 mm 3 m/s 753 mmHg 27%
    15:00 +20°C° 0 mm 3 m/s 752 mmHg 30%
    16:00 +20°C° 0 mm 3 m/s 752 mmHg 32%
    17:00 +20°C° 0 mm 3 m/s 751 mmHg 35%
    18:00 +18°C° 0 mm 2 m/s 752 mmHg 39%
    19:00 +17°C° 0 mm 2 m/s 752 mmHg 42%
    20:00 +15°C° 0 mm 1 m/s 752 mmHg 46%
    21:00 +14°C° 0 mm 2 m/s 752 mmHg 47%
    22:00 +14°C° 0 mm 2 m/s 752 mmHg 49%
    23:00 +13°C° 0 mm 2 m/s 752 mmHg 50%

    26 Mars, Mardi

    Heure Température Précipitation Vent Pression Humidité
    00:00 +11°C° 0 mm 3 m/s 752 mmHg 52%
    01:00 +11°C° 0 mm 3 m/s 752 mmHg 53%
    02:00 +11°C° 0 mm 3 m/s 751 mmHg 55%
    03:00 +10°C° 0 mm 3 m/s 752 mmHg 59%
    04:00 +10°C° 0 mm 4 m/s 752 mmHg 63%
    05:00 +10°C° 0 mm 4 m/s 752 mmHg 67%
    06:00 +9°C° 0 mm 6 m/s 752 mmHg 65%
    07:00 +9°C° 0 mm 7 m/s 753 mmHg 63%
    08:00 +10°C° 0 mm 8 m/s 753 mmHg 61%
    09:00 +10°C° 0 mm 8 m/s 753 mmHg 57%
    10:00 +11°C° 0 mm 8 m/s 754 mmHg 54%
    11:00 +11°C° 0 mm 8 m/s 754 mmHg 50%
    12:00 +11°C° 0.4 mm 8 m/s 754 mmHg 56%
    13:00 +10°C° 0.4 mm 7 m/s 755 mmHg 61%
    14:00 +10°C° 0.4 mm 6 m/s 755 mmHg 66%
    15:00 +9°C° 0.5 mm 6 m/s 755 mmHg 68%
    16:00 +8°C° 0.5 mm 5 m/s 756 mmHg 71%
    17:00 +7°C° 0.5 mm 5 m/s 756 mmHg 73%
    18:00 +6°C° 0.5 mm 4 m/s 757 mmHg 75%
    19:00 +7°C° 0.5 mm 3 m/s 757 mmHg 76%
    20:00 +7°C° 0.5 mm 2 m/s 758 mmHg 78%
    21:00 +8°C° 0.1 mm 1 m/s 758 mmHg 80%
    22:00 +8°C° 0.1 mm 1 m/s 759 mmHg 81%
    23:00 +8°C° 0.1 mm 1 m/s 759 mmHg 83%

    27 Mars, Mercredi

    Heure Température Précipitation Vent Pression Humidité
    00:00 +7°C° 0 mm 1 m/s 759 mmHg 82%
    01:00 +7°C° 0 mm 1 m/s 760 mmHg 81%
    02:00 +7°C° 0 mm 1 m/s 760 mmHg 80%
    03:00 +6°C° 0 mm 1 m/s 760 mmHg 78%
    04:00 +6°C° 0 mm 1 m/s 761 mmHg 76%
    05:00 +4°C° 0 mm 2 m/s 761 mmHg 74%
    06:00 +5°C° 0 mm 2 m/s 761 mmHg 68%
    07:00 +4°C° 0 mm 3 m/s 761 mmHg 63%
    08:00 +4°C° 0 mm 4 m/s 762 mmHg 57%
    09:00 +5°C° 0 mm 4 m/s 762 mmHg 53%
    10:00 +7°C° 0 mm 4 m/s 762 mmHg 49%
    11:00 +8°C° 0 mm 4 m/s 762 mmHg 45%
    12:00 +10°C° 0 mm 3 m/s 762 mmHg 44%
    13:00 +10°C° 0 mm 3 m/s 761 mmHg 44%
    14:00 +11°C° 0 mm 3 m/s 761 mmHg 43%
    15:00 +11°C° 0 mm 3 m/s 761 mmHg 44%
    16:00 +11°C° 0 mm 3 m/s 761 mmHg 46%
    17:00 +12°C° 0 mm 2 m/s 761 mmHg 47%
    18:00 +10°C° 0 mm 2 m/s 761 mmHg 51%
    19:00 +10°C° 0 mm 1 m/s 762 mmHg 56%
    20:00 +9°C° 0 mm 1 m/s 762 mmHg 60%
    21:00 +8°C° 0 mm 1 m/s 762 mmHg 61%
    22:00 +8°C° 0 mm 1 m/s 763 mmHg 62%
    23:00 +8°C° 0 mm 1 m/s 763 mmHg 63%

    28 Mars, Jeudi

    Heure Température Précipitation Vent Pression Humidité
    00:00 +8°C° 0.2 mm 1 m/s 763 mmHg 66%
    01:00 +8°C° 0.2 mm 1 m/s 763 mmHg 68%
    02:00 +6°C° 0.2 mm 0 m/s 763 mmHg 71%
    03:00 +7°C° 0.5 mm 1 m/s 764 mmHg 73%
    04:00 +7°C° 0.5 mm 1 m/s 764 mmHg 74%
    05:00 +6°C° 0.5 mm 1 m/s 764 mmHg 75%
    06:00 +6°C° 0.1 mm 2 m/s 764 mmHg 69%
    07:00 +6°C° 0.1 mm 2 m/s 765 mmHg 63%
    08:00 +5°C° 0.1 mm 3 m/s 765 mmHg 57%
    09:00 +7°C° 0 mm 3 m/s 765 mmHg 51%
    10:00 +7°C° 0 mm 4 m/s 765 mmHg 45%
    11:00 +8°C° 0 mm 4 m/s 765 mmHg 38%
    12:00 +10°C° 0 mm 4 m/s 765 mmHg 36%
    13:00 +10°C° 0 mm 5 m/s 765 mmHg 34%
    14:00 +10°C° 0 mm 5 m/s 764 mmHg 32%
    15:00 +10°C° 0 mm 5 m/s 764 mmHg 33%
    16:00 +11°C° 0 mm 4 m/s 764 mmHg 34%
    17:00 +11°C° 0 mm 4 m/s 764 mmHg 35%
    18:00 +9°C° 0 mm 3 m/s 764 mmHg 39%
    19:00 +8°C° 0 mm 2 m/s 765 mmHg 43%
    20:00 +8°C° 0 mm 1 m/s 765 mmHg 47%
    21:00 +7°C° 0 mm 1 m/s 765 mmHg 48%
    22:00 +7°C° 0 mm 1 m/s 765 mmHg 50%
    23:00 +6°C° 0 mm 1 m/s 765 mmHg 51%
    Voir plus